#timestamp,LO_Frequency,Hit 
1504213215.3,286046995.9,N
1504213235.2,286046995.4,N
1504213255.9,286046996.0,N
1504213275.7,286046995.9,N
1504213295.6,286046995.6,N
1504213315.4,286046995.2,N
1504213335.2,286046995.7,N
1504213355.1,286046997.7,N
1504213356.0,286046997.7,N
1504213375.8,286046997.3,N
1504213395.6,286046998.0,N
1504213415.5,286046997.4,N
1504213435.3,286046995.7,N
1504213455.1,286046995.7,N
1504213475.8,286046994.3,N
1504213495.7,286046994.8,N
1504213515.5,286046999.3,N
1504213535.3,286046998.3,N
1504213555.2,286046997.3,N
1504213575.9,286046996.6,N
1504213595.7,286046998.0,N
1504213615.6,286046994.7,P
1504213635.4,286046995.3,P
1504213655.2,286046995.7,P
1504213675.1,286046999.1,N
1504213676.0,286046999.1,N
1504213695.8,286046998.5,N
1504213715.6,286046998.9,N
1504213735.5,286046996.6,N
1504213755.3,286046995.0,P
1504213775.1,286046998.1,N
1504213795.9,286047003.6,N
1504213815.7,286047001.3,N
1504213835.5,286047002.5,N
1504213855.4,286047003.2,N
1504213875.2,286047002.2,N
1504213895.0,286047001.4,N
1504213895.9,286047001.4,N
1504213915.8,286047003.3,N
1504213935.6,286047008.7,P
1504213955.4,286047008.8,N
1504213975.3,286047007.0,N
1504213995.1,286047008.5,N
1504213996.0,286047008.5,N
1504214015.8,286047006.5,N
1504214035.7,286047005.7,N
1504214055.5,286047000.3,N
1504214075.3,286047003.9,N
1504214095.2,286047006.0,N
1504214115.9,286047007.6,N
1504214135.7,286047008.7,P
1504214155.6,286047000.5,N
1504214175.4,286047000.6,N
1504214195.2,286047000.0,N
1504214215.1,286046999.8,N
1504214216.0,286046999.8,N
1504214235.8,286047000.8,N
1504214255.6,286047002.6,N
1504214275.5,286047002.3,N
1504214295.3,286047002.5,N
1504214315.1,286047005.5,N
1504214335.8,286047003.6,N
1504214355.7,286047004.5,N
1504214375.5,286047008.8,P
1504214395.4,286047003.1,N
1504214415.2,286047000.1,N
1504214435.0,286046999.3,N
1504214435.9,286046999.3,N
1504214455.7,286046999.2,N
1504214475.6,286046996.7,N
1504214495.4,286047002.8,N
1504214515.2,286047002.6,N
1504214535.1,286047003.5,N
1504214536.0,286047003.5,N
1504214555.8,286047004.2,N
1504214575.6,286047006.7,N
1504214595.5,286047005.1,N
1504214615.3,286046999.7,N
1504214635.1,286047001.6,N
1504214655.9,286047006.8,N
1504214675.7,286047007.4,N
1504214695.5,286047007.0,N
1504214715.4,286047005.7,N
1504214735.2,286047006.4,N
1504214755.0,286047008.9,N
1504214755.9,286047008.9,N
1504214775.8,286047006.3,N
1504214795.6,286047006.9,N
1504214815.4,286047007.4,N
1504214835.2,286047005.0,N
1504214855.1,286047003.4,N
1504214856.0,286047003.4,N
1504214875.8,286047003.5,N
1504214895.6,286047000.5,N
1504214915.5,286047001.9,N
1504214935.3,286047001.3,N
1504214955.1,286047004.1,N
1504214975.9,286047002.9,N
1504214995.7,286047003.0,N
1504215015.5,286047001.7,N
1504215035.4,286047001.8,N
1504215055.2,286047003.9,N
1504215075.0,286047003.9,N
1504215075.9,286047003.9,N
1504215095.8,286047000.9,N
1504215115.6,286046996.6,N
1504215135.4,286046996.6,N
1504215155.3,286046998.2,N
1504215175.1,286046997.4,N
1504215176.0,286046997.4,N
1504215195.8,286046993.9,N
1504215215.6,286046993.8,N
1504215235.5,286046995.4,N
1504215255.3,286046997.6,N
1504215275.1,286046997.1,N
1504215295.9,286046998.4,N
1504215315.7,286047000.4,N
1504215335.5,286046996.9,N
1504215355.4,286046995.0,N
1504215375.2,286046995.2,N
1504215395.0,286046997.9,N
1504215395.9,286046997.9,N
1504215415.8,286046995.7,N
1504215435.6,286046994.9,N
1504215455.4,286046996.0,N
1504215475.3,286046995.4,N
1504215495.1,286046997.7,N
1504215496.0,286046997.7,N
1504215515.8,286046996.7,N
1504215535.7,286046997.4,N
1504215555.5,286046993.3,N
1504215575.3,286046993.8,N
1504215595.1,286046999.8,N
1504215615.9,286046999.9,N
1504215635.7,286046999.4,N
1504215655.5,286046995.0,N
1504215675.4,286046999.4,N
1504215695.2,286046999.8,N
1504215715.0,286047002.6,N
1504215715.9,286047002.6,N
1504215735.8,286047000.4,N
1504215755.6,286047001.2,N
1504215775.4,286046999.1,N
1504215795.3,286046998.7,N
1504215815.1,286046998.5,N
1504215816.0,286046998.5,N
1504215835.8,286046998.4,N
1504215855.7,286046999.3,N
1504215875.5,286046999.6,N
1504215895.3,286046996.5,N
1504215915.2,286046997.1,N
1504215935.9,286046996.9,N
1504215955.7,286046997.7,N
1504215975.5,286046995.6,N
1504215995.4,286046995.3,N
1504216015.2,286046996.0,N
1504216035.0,286046994.1,N
1504216035.9,286046994.1,N
1504216055.8,286046991.8,P
1504216075.6,286046996.4,N
1504216095.5,286046997.2,N
1504216115.3,286046997.3,N
1504216135.1,286046997.0,N
1504216155.8,286046999.2,N
1504216175.7,286046995.0,N
1504216195.5,286046995.0,N
1504216215.3,286046997.9,N
1504216235.2,286046993.7,P
1504216255.0,286046997.8,N
1504216255.9,286046997.8,N
1504216275.7,286046996.1,N
1504216295.6,286046994.2,P
1504216315.4,286047001.4,N
1504216335.3,286047003.4,N
1504216355.1,286047006.5,N
1504216356.0,286047006.5,N
1504216375.8,286047008.9,N
1504216395.6,286047006.9,N
1504216415.5,286047007.3,N
1504216435.3,286047006.8,N
1504216455.1,286047004.8,N
1504216475.9,286047007.1,N
1504216495.7,286047003.4,N
1504216515.5,286047003.6,N
1504216535.4,286047002.0,N
1504216555.2,286046999.3,N
1504216575.0,286047000.8,N
1504216575.9,286047000.8,N
1504216595.8,286047000.5,N
1504216615.6,286047000.7,N
1504216635.4,286046998.9,N
1504216655.3,286046997.8,N
1504216675.1,286046997.4,N
1504216676.0,286046997.4,N
1504216695.8,286047001.2,N
1504216715.7,286047001.5,N
1504216735.5,286047001.5,N
1504216755.3,286047001.7,N
1504216775.1,286047002.1,N
1504216795.9,286047005.8,N
